Weather History for Mt. Clemens, MI

Change the Weather History Date:

Wednesday, June 26, 2013

  Actual Average Record
Temperature  
Mean Temperature 76 °F -  
Max Temperature 84 °F 81 °F 97 °F (1952)
Min Temperature 67 °F 59 °F 45 °F (1979)
Cooling Degree Days 10    
Growing Degree Days 26 (Base 50)    
Moisture  
Dew Point 68 °F    
Average Humidity 80    
Maximum Humidity 97    
Minimum Humidity 58    
Precipitation  
Precipitation 0.00 in - - ()
Sea Level Pressure  
Sea Level Pressure 29.83 in    
Wind  
Wind Speed 8 mph (SSE)    
Max Wind Speed 17 mph    
Max Gust Speed 24 mph    
Visibility 10 miles    
Events Thunderstorm    
Averages and records for this station are not official NWS values.
T = Trace of Precipitation, MM = Missing Value Source: NWS Daily Summary

Daily Weather History Graph

Daily Weather History Graph

Search for Another Location

Airport:

Trip Planner

Search our weather history database for the weather conditions in past years. The results will help you decide how hot, cold, wet, or windy it might be!

Date:

Astronomy

Jun. 26, 2013 Rise Set
Actual Time 5:55 AM EDT 9:13 PM EDT
Civil Twilight 5:20 AM EDT 9:48 PM EDT
Nautical Twilight 4:35 AM EDT 10:33 PM EDT
Astronomical Twilight 3:39 AM EDT 11:28 PM EDT
Moon 11:29 PM EDT (6/26) 9:50 AM EDT (6/26)
Length of Visible Light 16h 27m
Length of Day
15h 17m
Waning Gibbous, 85% of the Moon is Illuminated
Jun 26
Waning Gibbous
Jun 30
Last Quarter
Jul 8
New
Jul 15
First Quarter
Jul 22
Full

Hourly Weather History & Observations

Time (EDT) Temp. Heat Index Dew Point Humidity Pressure Visibility Wind Dir Wind Speed Gust Speed Precip Events Conditions
12:05 AM 73.4 °F - 71.6 °F 94% 29.85 in 10.0 mi South 5.8 mph - N/A Thunderstorm Overcast
12:07 AM 73.4 °F - 71.6 °F 94% 29.85 in 10.0 mi South 4.6 mph - N/A Thunderstorm Thunderstorm
12:32 AM 73.4 °F - 69.8 °F 88% 29.85 in 10.0 mi SSE 12.7 mph - N/A Thunderstorm Overcast
12:43 AM 73.4 °F - 69.8 °F 88% 29.85 in 10.0 mi SSE 12.7 mph - N/A Thunderstorm Thunderstorm
12:58 AM 73.6 °F - 70.2 °F 89% 29.85 in 10.0 mi South 16.1 mph 21.9 mph N/A Thunderstorm Thunderstorm
1:02 AM 73.4 °F - 69.8 °F 88% 29.85 in 10.0 mi South 17.3 mph 24.2 mph N/A Thunderstorm Mostly Cloudy
1:58 AM 70.9 °F - 66.6 °F 86% 29.84 in 10.0 mi SSW 11.5 mph - N/A   Scattered Clouds
2:58 AM 70.0 °F - 65.7 °F 86% 29.83 in 10.0 mi NW 2.3 mph - N/A   Overcast
3:58 AM 69.1 °F - 66.0 °F 90% 29.82 in 10.0 mi North 2.3 mph - N/A   Mostly Cloudy
4:58 AM 67.3 °F - 65.3 °F 93% 29.81 in 10.0 mi South 2.3 mph - N/A   Partly Cloudy
5:58 AM 67.5 °F - 66.6 °F 97% 29.83 in 10.0 mi SE 5.8 mph - N/A   Partly Cloudy
6:55 AM 68.5 °F - 67.6 °F 97% 29.85 in 10.0 mi SE 6.9 mph - N/A   Mostly Cloudy
7:15 AM 71.6 °F - 68.0 °F 88% 29.84 in 10.0 mi SSE 10.4 mph - N/A   Mostly Cloudy
7:30 AM 71.6 °F - 68.0 °F 88% 29.84 in 10.0 mi SSE 6.9 mph - N/A   Mostly Cloudy
7:55 AM 72.1 °F - 66.7 °F 83% 29.86 in 10.0 mi SSE 9.2 mph - N/A   Mostly Cloudy
8:55 AM 75.0 °F - 66.6 °F 75% 29.86 in 10.0 mi South 9.2 mph - N/A   Partly Cloudy
9:55 AM 77.2 °F - 66.6 °F 70% 29.86 in 10.0 mi South 10.4 mph - N/A   Partly Cloudy
10:55 AM 78.8 °F - 67.5 °F 68% 29.85 in 10.0 mi South 11.5 mph - N/A   Scattered Clouds
11:55 AM 80.4 °F 83.0 °F 67.8 °F 65% 29.86 in 10.0 mi SSE 9.2 mph - N/A   Mostly Cloudy
12:55 PM 81.9 °F 84.6 °F 67.8 °F 62% 29.86 in 10.0 mi South 11.5 mph - N/A   Mostly Cloudy
1:55 PM 81.0 °F 83.2 °F 66.6 °F 61% 29.85 in 10.0 mi Calm Calm - N/A   Mostly Cloudy
2:55 PM 84.0 °F 87.0 °F 68.0 °F 58% 29.82 in 10.0 mi SSW 8.1 mph - N/A   Mostly Cloudy
3:55 PM 82.0 °F 85.1 °F 68.5 °F 63% 29.82 in 10.0 mi NE 8.1 mph - N/A   Mostly Cloudy
4:55 PM 82.0 °F 84.9 °F 68.0 °F 62% 29.81 in 10.0 mi ENE 9.2 mph - N/A   Mostly Cloudy
5:55 PM 81.3 °F 84.1 °F 68.0 °F 64% 29.80 in 10.0 mi East 9.2 mph - N/A   Mostly Cloudy
6:55 PM 81.1 °F 83.7 °F 67.6 °F 63% 29.78 in 10.0 mi East 5.8 mph - N/A   Mostly Cloudy
7:58 PM 77.2 °F - 67.6 °F 72% 29.77 in 10.0 mi East 5.8 mph - N/A   Partly Cloudy
8:58 PM 76.8 °F - 70.5 °F 81% 29.77 in 10.0 mi East 5.8 mph - N/A   Overcast
9:58 PM 74.7 °F - 70.5 °F 87% 29.77 in 10.0 mi SE 3.5 mph - N/A   Partly Cloudy
10:58 PM 75.0 °F - 69.6 °F 83% 29.76 in 10.0 mi WNW 2.3 mph - N/A   Clear
11:58 PM 73.8 °F - 71.2 °F 92% 29.76 in 10.0 mi East 5.8 mph - N/A   Scattered Clouds